G0UBK Weather Reports


Display with metric or nautical units.
time (UTC)temp
F
wind
direction
speed
MPH
gust
MPH
rain 1hr
in
rain 24hr
in
rain mn
in
humidity
%
barometer
mb
20260506133102 50 51 2.0 7.0 0.00 0.02 0.02 64 1016.6
20260506131552 49 32 3.0 7.0 0.00 0.02 0.02 65 1016.6
20260506130046 49 320 2.0 7.0 0.00 0.02 0.02 66 1016.7
20260506124545 49 50 2.0 5.0 0.00 0.02 0.02 66 1016.7
20260506123047 49 308 2.0 6.0 0.00 0.02 0.02 65 1016.7
20260506121548 49 335 2.0 8.0 0.00 0.02 0.02 67 1016.6
20260506120054 49 89 3.0 7.0 0.00 0.02 0.02 66 1016.8
20260506114550 49 324 2.0 6.0 0.00 0.02 0.02 68 1016.7
20260506113052 49 12 1.0 6.0 0.00 0.02 0.02 69 1016.9
20260506111549 49 327 1.0 5.0 0.00 0.02 0.02 69 1016.8
20260506110051 49 0 2.0 6.0 0.00 0.02 0.02 68 1016.8
20260506104608 49 41 3.0 7.0 0.00 0.02 0.02 65 1016.8
20260506103051 50 56 1.0 9.0 0.00 0.02 0.02 67 1016.9
20260506101549 49 117 3.0 8.0 0.00 0.02 0.02 65 1016.8
20260506100051 51 18 1.0 7.0 0.00 0.02 0.02 66 1016.8
20260506094550 49 3 2.0 7.0 0.00 0.02 0.02 70 1016.9
20260506093048 49 356 1.0 7.0 0.00 0.02 0.02 68 1017.0
20260506091548 49 55 1.0 4.0 0.00 0.02 0.02 68 1017.0
20260506090049 48 41 1.0 6.0 0.00 0.02 0.02 70 1016.8
20260506084551 46 61 2.0 7.0 0.00 0.02 0.02 68 1016.9
20260506083051 46 49 2.0 7.0 0.00 0.02 0.02 69 1016.8
20260506081557 46 85 1.0 6.0 0.00 0.02 0.02 72 1016.8
20260506073050 46 25 2.0 9.0 0.00 0.02 0.02 74 1016.5
20260506071547 45 12 3.0 8.0 0.00 0.02 0.02 76 1016.5
20260506061552 45 339 2.0 8.0 0.00 0.02 0.02 79 1016.1
20260506044603 43 94 2.0 10.0 0.02 0.02 0.02 81 1015.9
20260506043055 43 96 4.0 10.0 0.02 0.02 0.02 82 1015.9
20260506041547 43 78 2.0 9.0 0.02 0.02 0.02 84 1015.9
20260506040056 42 69 2.0 5.0 0.00 0.00 0.00 82 1015.9
20260506034552 42 49 4.0 12.0 0.00 0.00 0.00 79 1016.1
20260506033048 43 59 3.0 10.0 0.00 0.00 0.00 80 1016.1
20260506031547 43 34 3.0 8.0 0.00 0.00 0.00 81 1016.1
20260506030046 43 79 1.0 11.0 0.00 0.00 0.00 82 1015.9
20260506024546 43 1 2.0 8.0 0.00 0.00 0.00 82 1016.0
20260506023050 43 345 3.0 13.0 0.00 0.00 0.00 82 1015.9
20260506021557 43 274 5.0 11.0 0.00 0.00 0.00 82 1015.9
20260506020048 43 279 6.0 13.0 0.00 0.00 0.00 84 1015.9
20260506014609 43 293 8.0 14.0 0.00 0.00 0.00 85 1016.0
20260506013052 43 309 8.0 14.0 0.00 0.00 0.00 85 1015.9
20260506011555 43 340 6.0 12.0 0.00 0.00 0.00 84 1016.0
20260506010058 44 311 5.0 13.0 0.00 0.00 0.00 83 1016.1
20260506004551 44 319 1.0 7.0 0.00 0.00 0.00 80 1016.1
20260506003059 44 333 3.0 10.0 0.00 0.00 0.00 77 1016.2
20260506001613 43 323 3.0 11.0 0.00 0.00 0.00 77 1016.3
20260506000054 43 309 5.0 12.0 0.00 0.00 0.00 78 1016.3
20260505234609 43 303 4.0 8.0 0.00 0.00 0.00 78 1016.3
20260505233057 44 301 2.0 8.0 0.00 0.00 0.00 78 1016.4
20260505231557 44 0 2.0 7.0 0.00 0.00 0.00 78 1016.5
20260505230049 44 115 2.0 8.0 0.00 0.00 0.00 80 1016.5
20260505224551 44 323 3.0 11.0 0.00 0.00 0.00 79 1016.6
20260505223106 44 314 5.0 11.0 0.00 0.00 0.00 79 1016.6
20260505221552 44 309 4.0 10.0 0.00 0.00 0.00 79 1016.6
20260505220100 44 338 2.0 8.0 0.00 0.00 0.00 81 1016.7
20260505214558 44 87 3.0 13.0 0.00 0.00 0.00 81 1016.6
20260505213054 44 326 4.0 11.0 0.00 0.00 0.00 82 1016.7
20260505211617 44 293 3.0 9.0 0.00 0.00 0.00 81 1016.7
20260505210054 44 313 3.0 7.0 0.00 0.00 0.00 82 1016.8
20260505204549 44 352 3.0 12.0 0.00 0.00 0.00 82 1016.9
20260505203110 44 30 2.0 6.0 0.00 0.00 0.00 81 1016.9
20260505201552 44 296 2.0 12.0 0.00 0.00 0.00 80 1016.9
20260505200048 44 212 1.0 8.0 0.00 0.00 0.00 81 1016.8
20260505194547 44 37 2.0 7.0 0.00 0.00 0.00 81 1016.8
20260505193051 45 266 3.0 12.0 0.00 0.00 0.00 81 1016.7
20260505191554 45 345 2.0 8.0 0.00 0.00 0.00 82 1016.4
20260505190053 45 316 4.0 11.0 0.00 0.00 0.00 82 1016.4
20260505184555 45 342 6.0 12.0 0.00 0.00 0.00 82 1016.5
20260505183048 46 331 2.0 10.0 0.00 0.00 0.00 82 1016.2
20260505181552 46 291 4.0 16.0 0.00 0.00 0.00 82 1016.3
20260505180057 46 311 5.0 12.0 0.00 0.00 0.00 81 1016.2
20260505174553 46 316 5.0 12.0 0.00 0.00 0.00 81 1016.4
20260505173047 46 288 3.0 12.0 0.00 0.00 0.00 79 1016.4
20260505171556 47 89 5.0 15.0 0.00 0.00 0.00 79 1016.3
20260505170050 47 59 7.0 16.0 0.00 0.00 0.00 80 1016.2
20260505164552 47 307 8.0 14.0 0.00 0.00 0.00 80 1016.2
20260505163049 48 327 9.0 18.0 0.00 0.00 0.00 81 1016.1
20260505161552 47 315 9.0 17.0 0.00 0.00 0.00 83 1016.0
20260505153055 49 334 8.0 16.0 0.00 0.00 0.00 84 1015.6
20260505151551 49 324 12.0 20.0 0.00 0.00 0.00 84 1015.6